This is the latest recevied weather packets stored in our database for station/object KE8WMS. If no packets are shown the sender has not sent any weather packets the latest 10 day(s).
| Time | Temp. | Humidity | Pressure | Rain* | Wind** | Luminosity | Snow |
|---|---|---|---|---|---|---|---|
| 1777591626 | 11.11° C | 50% | 1011.1 hPa | 0 mm | - | 46 W/m² | - |
| 1777591322 | 10.56° C | 51% | 1011 hPa | 0 mm | - | 46 W/m² | - |
| 1777591018 | 11.11° C | 52% | 1011.2 hPa | 0 mm | - | 41 W/m² | - |
| 1777590713 | 11.11° C | 54% | 1011.3 hPa | 0 mm | - | 43 W/m² | - |
| 1777590410 | 11.11° C | 52% | 1011 hPa | 0 mm | - | 53 W/m² | - |
| 1777590107 | 11.11° C | 54% | 1011.2 hPa | 0 mm | - | 61 W/m² | - |
| 1777589803 | 11.11° C | 54% | 1011.3 hPa | 0 mm | - | 73 W/m² | - |
| 1777589498 | 11.11° C | 53% | 1011.1 hPa | 0 mm | - | 51 W/m² | - |
| 1777589197 | 11.11° C | 54% | 1011.1 hPa | 0 mm | - | 44 W/m² | - |
| 1777588894 | 11.11° C | 53% | 1011.4 hPa | 0 mm | - | 44 W/m² | - |
| 1777588590 | 11.11° C | 54% | 1011.3 hPa | 0 mm | - | 45 W/m² | - |
| 1777588285 | 11.11° C | 53% | 1011.3 hPa | 0 mm | - | 45 W/m² | - |
| 1777587981 | 11.11° C | 52% | 1011.2 hPa | 0 mm | - | 46 W/m² | - |
| 1777587678 | 11.67° C | 52% | 1011.3 hPa | 0 mm | - | 71 W/m² | - |
| 1777587377 | 11.67° C | 54% | 1011.1 hPa | 0 mm | - | 48 W/m² | - |
| 1777587073 | 11.67° C | 53% | 1011 hPa | 0 mm | - | 63 W/m² | - |
| 1777586769 | 11.67° C | 52% | 1010.9 hPa | 0 mm | - | 56 W/m² | - |
| 1777586465 | 11.67° C | 52% | 1010.9 hPa | 0 mm | - | 77 W/m² | - |
| 1777586160 | 12.22° C | 55% | 1011 hPa | 0 mm | - | 261 W/m² | - |
| 1777585858 | 11.67° C | 54% | 1010.9 hPa | 0 mm | - | 276 W/m² | - |
| 1777585558 | 12.22° C | 51% | 1010.9 hPa | 0 mm | - | 289 W/m² | - |
| 1777585254 | 12.22° C | 49% | 1011 hPa | 0 mm | - | 304 W/m² | - |
| 1777584949 | 11.67° C | 53% | 1011.2 hPa | 0 mm | - | 322 W/m² | - |
| 1777584647 | 12.22° C | 52% | 1011.2 hPa | 0 mm | - | 336 W/m² | - |
| 1777584343 | 12.78° C | 50% | 1011.1 hPa | 0 mm | - | 348 W/m² | - |
* Rain latest hour (hover to see other rain measurements)
** Current wind speed in m/s (hover to see current wind gust speed)